{"data":{"norad_id":47810,"epoch":"2026-09-19T21:08:47.364000Z","epoch_age_seconds":79257,"freshness":"FRESH","line1":"1 47810U 21018Z   26262.88110375  .00000229  00000+0  19146-4 0  9990","line2":"2 47810  53.1608  71.9815 0001136  81.9866 278.1265 15.31713597306355","mean_motion":15.31713597,"eccentricity":0.0001136,"inclination_deg":53.1608,"raan_deg":71.9815,"arg_perigee_deg":81.9866,"mean_anomaly_deg":278.1265,"bstar":1.9146e-5,"rev_number":30635,"period_min":94.012353407345,"perigee_km":469.92143575375,"apogee_km":471.47749139827,"semimajor_km":6848.836463576,"source":"CELESTRAK","updated_at":"2026-09-20T09:00:38.748341Z"}}